Weather History for KRDR - December, 2013

Change the Weather History Date:

Monday, December 2, 2013

  Actual Average Record
Temperature  
Mean Temperature 23 °F -  
Max Temperature 25 °F 26 °F 41 °F (1999)
Min Temperature 21 °F 12 °F -11 °F (2007)
Degree Days  
Heating Degree Days 42    
Moisture  
Dew Point 21 °F    
Average Humidity 94    
Maximum Humidity 100    
Minimum Humidity 86    
Precipitation  
Precipitation 0.00 in - - ()
Sea Level Pressure  
Sea Level Pressure 29.75 in    
Wind  
Wind Speed 11 mph (ENE)    
Max Wind Speed 22 mph    
Max Gust Speed 25 mph    
Visibility 6 miles    
Events Snow    
Averages and records for this station are not official NWS values.
T = Trace of Precipitation, MM = Missing Value Source: NWS Daily Summary

Daily Weather History Graph

Daily Weather History Graph

Search for Another Location

Airport or City:

Trip Planner

Search our weather history database for the weather conditions in past years. The results will help you decide how hot, cold, wet, or windy it might be!

Date:

Astronomy

Dec. 02, 2013 Rise Set
Actual Time 7:59 AM CST 4:38 PM CST
Civil Twilight 7:24 AM CST 5:13 PM CST
Nautical Twilight 6:45 AM CST 5:52 PM CST
Astronomical Twilight 6:07 AM CST 6:30 PM CST
Moon 7:23 AM CST (12/2) 4:44 PM CST (12/2)
Length of Visible Light 9h 49m
Length of Day
8h 38m
Waning Crescent, 0% of the Moon is Illuminated
Dec 2
Waning Crescent
Dec 2
New
Dec 9
First Quarter
Dec 17
Full
Dec 25
Last Quarter

Hourly Weather History & Observations

Time (CST) Temp. Windchill Dew Point Humidity Pressure Visibility Wind Dir Wind Speed Gust Speed Precip Events Conditions
12:03 AM 21.2 °F 11.7 °F 19.4 °F 93% 29.84 in 8.0 mi ESE 8.1 mph - N/A   Overcast
12:08 AM 21.2 °F 10.9 °F 19.4 °F 93% 29.84 in 10.0 mi ESE 9.2 mph - N/A   Overcast
12:10 AM 21.2 °F 10.9 °F 19.4 °F 93% 29.84 in 10.0 mi ESE 9.2 mph - N/A   Overcast
12:55 AM 21.2 °F 11.7 °F 19.4 °F 93% 29.81 in 10.0 mi ESE 8.1 mph - N/A   Overcast
12:58 AM 21.9 °F 11.7 °F 19.9 °F 92% 29.87 in 10.0 mi ESE 9.2 mph - N/A   Overcast
1:18 AM 21.2 °F 10.9 °F 21.2 °F 100% 29.80 in 10.0 mi East 9.2 mph - N/A   Overcast
1:59 AM 22.1 °F 12.8 °F 20.3 °F 93% 29.85 in 10.0 mi ESE 8.1 mph - N/A   Overcast
2:08 AM 21.2 °F 11.7 °F 21.2 °F 100% 29.79 in 10.0 mi East 8.1 mph - N/A Snow Light Snow
2:23 AM 21.2 °F 11.7 °F 21.2 °F 100% 29.79 in 8.0 mi East 8.1 mph - N/A Snow Light Snow
2:33 AM 21.2 °F 11.7 °F 21.2 °F 100% 29.79 in 5.0 mi East 8.1 mph - N/A Snow Light Snow
2:38 AM 21.2 °F 11.7 °F 21.2 °F 100% 29.79 in 6.0 mi East 8.1 mph - N/A Snow Light Snow
2:59 AM 22.1 °F 12.8 °F 20.7 °F 94% 29.84 in 10.0 mi ESE 8.1 mph - 0.00 in Snow Light Snow
3:00 AM 21.2 °F 11.7 °F 21.2 °F 100% 29.78 in 10.0 mi ESE 8.1 mph - N/A   Overcast
3:05 AM 21.2 °F 11.7 °F 21.2 °F 100% 29.78 in 10.0 mi ESE 8.1 mph - N/A   Overcast
3:15 AM 21.2 °F 10.9 °F 21.2 °F 100% 29.77 in 10.0 mi ESE 9.2 mph - N/A   Overcast
3:20 AM 21.2 °F 11.7 °F 21.2 °F 100% 29.77 in 8.0 mi ESE 8.1 mph - N/A   Overcast
3:25 AM 21.2 °F 10.9 °F 21.2 °F 100% 29.77 in 7.0 mi ESE 9.2 mph - N/A   Overcast
3:30 AM 21.2 °F 10.9 °F 21.2 °F 100% 29.76 in 7.0 mi East 9.2 mph - N/A   Overcast
3:35 AM 21.2 °F 10.9 °F 21.2 °F 100% 29.76 in 6.0 mi East 9.2 mph - N/A   Overcast
3:45 AM 21.2 °F 11.7 °F 21.2 °F 100% 29.76 in 6.0 mi East 8.1 mph - N/A   Overcast
3:55 AM 21.2 °F 11.7 °F 21.2 °F 100% 29.76 in 8.0 mi East 8.1 mph - N/A   Overcast
3:58 AM 21.2 °F 11.7 °F 21.2 °F 100% 29.82 in 9.0 mi East 8.1 mph - 0.00 in   Overcast
4:03 AM 21.2 °F 11.7 °F 21.2 °F 100% 29.75 in 10.0 mi East 8.1 mph - N/A   Overcast
4:06 AM 21.2 °F 10.9 °F 21.2 °F 100% 29.75 in 9.0 mi East 9.2 mph - N/A   Overcast
4:11 AM 21.2 °F 10.9 °F 21.2 °F 100% 29.75 in 8.0 mi East 9.2 mph - N/A   Overcast
4:29 AM 21.2 °F 10.9 °F 21.2 °F 100% 29.74 in 6.0 mi East 9.2 mph - N/A Snow Light Snow
4:39 AM 21.2 °F 11.7 °F 21.2 °F 100% 29.74 in 4.0 mi East 8.1 mph - N/A Snow Light Snow
4:48 AM 21.2 °F 11.7 °F 21.2 °F 100% 29.74 in 4.0 mi East 8.1 mph - N/A Snow Light Snow
4:58 AM 21.2 °F 10.1 °F 21.2 °F 100% 29.80 in 4.0 mi East 10.4 mph - 0.00 in Snow Light Snow
5:03 AM 21.2 °F 10.9 °F 21.2 °F 100% 29.73 in 7.0 mi East 9.2 mph - N/A Snow Light Snow
5:06 AM 21.2 °F 10.9 °F 21.2 °F 100% 29.73 in 9.0 mi East 9.2 mph - N/A   Overcast
5:11 AM 21.2 °F 11.7 °F 21.2 °F 100% 29.73 in 10.0 mi East 8.1 mph - N/A   Overcast
5:13 AM 21.2 °F 11.7 °F 21.2 °F 100% 29.73 in 9.0 mi East 8.1 mph - N/A Snow Light Snow
5:18 AM 23.0 °F 13.1 °F 21.2 °F 93% 29.73 in 8.0 mi East 9.2 mph - N/A Snow Light Snow
5:28 AM 23.0 °F 13.9 °F 21.2 °F 93% 29.73 in 5.0 mi East 8.1 mph - N/A Snow Light Snow
5:58 AM 22.3 °F 11.5 °F 20.8 °F 94% 29.78 in 5.0 mi East 10.4 mph - 0.00 in Snow Light Snow
5:59 AM 23.0 °F 12.4 °F 21.2 °F 93% 29.72 in 5.0 mi East 10.4 mph - N/A Snow Light Snow
6:04 AM 23.0 °F 13.1 °F 21.2 °F 93% 29.72 in 5.0 mi East 9.2 mph - N/A Snow Light Snow
6:14 AM 23.0 °F 12.4 °F 21.2 °F 93% 29.72 in 4.0 mi East 10.4 mph - N/A Snow Light Snow
6:44 AM 21.2 °F 10.9 °F 21.2 °F 100% 29.71 in 5.0 mi East 9.2 mph - N/A Snow Light Snow
6:50 AM 21.2 °F 11.7 °F 21.2 °F 100% 29.71 in 6.0 mi East 8.1 mph - N/A   Overcast
6:58 AM 22.1 °F 11.3 °F 20.7 °F 94% 29.77 in 6.0 mi East 10.4 mph - 0.00 in   Overcast
7:03 AM 21.2 °F 10.9 °F 21.2 °F 100% 29.71 in 7.0 mi ENE 9.2 mph - N/A   Overcast
7:53 AM 21.2 °F 10.1 °F 19.4 °F 93% 29.70 in 5.0 mi ENE 10.4 mph - N/A   Overcast
7:58 AM 21.9 °F 11.0 °F 20.1 °F 93% 29.76 in 4.0 mi ENE 10.4 mph - N/A   Overcast
8:13 AM 21.2 °F 10.1 °F 19.4 °F 93% 29.70 in 2.5 mi ENE 10.4 mph - N/A   Overcast
8:43 AM 23.0 °F 13.1 °F 19.4 °F 86% 29.70 in 3.0 mi ENE 9.2 mph - N/A   Overcast
8:58 AM 22.6 °F 11.9 °F 20.5 °F 91% 29.76 in 10.0 mi ENE 10.4 mph - N/A   Overcast
8:59 AM 23.0 °F 13.1 °F 21.2 °F 93% 29.70 in 9.0 mi ENE 9.2 mph - N/A   Overcast
9:34 AM 23.0 °F 12.4 °F 21.2 °F 93% 29.70 in 2.5 mi ENE 10.4 mph - N/A   Overcast
9:48 AM 23.0 °F 12.4 °F 21.2 °F 93% 29.70 in 2.0 mi ENE 10.4 mph - N/A   Overcast
9:53 AM 23.0 °F 12.4 °F 21.2 °F 93% 29.70 in 1.8 mi ENE 10.4 mph - N/A   Overcast
9:58 AM 23.7 °F 12.6 °F 21.2 °F 90% 29.76 in 1.8 mi ENE 11.5 mph - 0.00 in   Overcast
10:13 AM 23.0 °F 12.4 °F 21.2 °F 93% 29.70 in 2.0 mi ENE 10.4 mph - N/A   Overcast
10:28 AM 23.0 °F 11.7 °F 21.2 °F 93% 29.70 in 3.0 mi NE 11.5 mph - N/A   Overcast
10:32 AM 23.0 °F 11.7 °F 21.2 °F 93% 29.70 in 3.0 mi NE 11.5 mph - N/A   Overcast
10:37 AM 23.0 °F 12.4 °F 21.2 °F 93% 29.70 in 3.0 mi NE 10.4 mph - N/A   Overcast
10:47 AM 23.0 °F 11.7 °F 21.2 °F 93% 29.70 in 3.0 mi ENE 11.5 mph - N/A   Overcast
10:57 AM 23.0 °F 12.4 °F 21.2 °F 93% 29.70 in 3.0 mi NE 10.4 mph - N/A   Overcast
10:58 AM 23.0 °F 12.4 °F 21.2 °F 93% 29.76 in 3.0 mi NE 10.4 mph - 0.00 in   Overcast
11:03 AM 23.0 °F 12.4 °F 21.2 °F 93% 29.70 in 4.0 mi ENE 10.4 mph - N/A   Overcast
11:59 AM 24.4 °F 13.0 °F 21.4 °F 88% 29.75 in 10.0 mi NE 12.7 mph - N/A   Overcast
12:46 PM 24.8 °F 14.6 °F 21.2 °F 86% 29.68 in 10.0 mi NE 10.4 mph - N/A   Overcast
12:58 PM 24.4 °F 13.5 °F 21.7 °F 89% 29.74 in 10.0 mi NNE 11.5 mph - 0.00 in   Overcast
1:56 PM 24.8 °F 12.4 °F 23.0 °F 93% 29.66 in 4.0 mi NNE 15.0 mph - N/A   Overcast
2:07 PM 24.8 °F 14.6 °F 23.0 °F 93% 29.66 in 6.0 mi NNE 10.4 mph - N/A Snow Light Snow
2:09 PM 24.8 °F 13.4 °F 23.0 °F 93% 29.66 in 6.0 mi NNE 12.7 mph - N/A Snow Light Snow
2:20 PM 24.8 °F 12.9 °F 23.0 °F 93% 29.66 in 2.5 mi NNE 13.8 mph - N/A Snow Light Snow
2:22 PM 24.8 °F 12.4 °F 23.0 °F 93% 29.66 in 2.5 mi NNE 15.0 mph - N/A Snow Light Snow
2:38 PM 24.8 °F 13.4 °F 23.0 °F 93% 29.66 in 3.0 mi NNE 12.7 mph - N/A   Overcast
2:40 PM 24.8 °F 13.4 °F 23.0 °F 93% 29.66 in 3.0 mi NNE 12.7 mph - N/A   Overcast
2:58 PM 25.3 °F 14.1 °F 22.8 °F 90% 29.72 in 4.0 mi NNE 12.7 mph - 0.00 in Snow Light Snow
3:18 PM 24.8 °F 13.4 °F 23.0 °F 93% 29.67 in 3.0 mi NNE 12.7 mph - N/A Snow Light Snow
3:43 PM 24.8 °F 12.9 °F 23.0 °F 93% 29.67 in 3.0 mi NE 13.8 mph - N/A   Overcast
3:58 PM 25.0 °F 13.1 °F 23.2 °F 93% 29.74 in 3.0 mi NE 13.8 mph - 0.00 in   Overcast
4:08 PM 24.8 °F 12.9 °F 23.0 °F 93% 29.68 in 5.0 mi NE 13.8 mph - N/A   Overcast
4:23 PM 24.8 °F 12.9 °F 23.0 °F 93% 29.69 in 5.0 mi NE 13.8 mph - N/A   Overcast
4:25 PM 24.8 °F 12.4 °F 23.0 °F 93% 29.69 in 4.0 mi NE 15.0 mph - N/A   Overcast
4:35 PM 24.8 °F 13.4 °F 23.0 °F 93% 29.69 in 3.0 mi NE 12.7 mph - N/A   Overcast
4:58 PM 25.0 °F 13.1 °F 23.5 °F 94% 29.76 in 5.0 mi NE 13.8 mph - 0.00 in   Overcast
5:03 PM 24.8 °F 12.4 °F 23.0 °F 93% 29.70 in 5.0 mi NE 15.0 mph - N/A   Overcast
5:18 PM 24.8 °F 12.4 °F 23.0 °F 93% 29.70 in 6.0 mi NNE 15.0 mph - N/A   Overcast
5:28 PM 24.8 °F 11.9 °F 23.0 °F 93% 29.71 in 5.0 mi NNE 16.1 mph - N/A   Overcast
5:43 PM 24.8 °F 12.4 °F 23.0 °F 93% 29.71 in 5.0 mi NNE 15.0 mph - N/A   Overcast
5:58 PM 24.6 °F 12.2 °F 23.0 °F 94% 29.78 in 6.0 mi NNE 15.0 mph - 0.00 in   Overcast
6:13 PM 24.8 °F 12.4 °F 23.0 °F 93% 29.72 in 5.0 mi NNE 15.0 mph - N/A   Overcast
6:30 PM 24.8 °F 12.4 °F 23.0 °F 93% 29.73 in 5.0 mi NNE 15.0 mph 21.9 mph N/A   Overcast
6:40 PM 24.8 °F 11.9 °F 23.0 °F 93% 29.73 in 3.0 mi NNE 16.1 mph - N/A   Overcast
6:58 PM 24.1 °F 11.0 °F 22.5 °F 94% 29.79 in 3.0 mi NNE 16.1 mph - 0.00 in   Overcast
7:13 PM 24.8 °F 11.9 °F 23.0 °F 93% 29.74 in 2.0 mi NE 16.1 mph - N/A Snow Light Snow
7:27 PM 24.8 °F 12.4 °F 23.0 °F 93% 29.74 in 2.5 mi NE 15.0 mph - N/A Snow Light Snow
7:52 PM 23.0 °F 8.3 °F 21.2 °F 93% 29.75 in 3.0 mi NE 19.6 mph - N/A   Overcast
7:58 PM 23.7 °F 10.1 °F 21.9 °F 93% 29.80 in 3.0 mi NE 17.3 mph - 0.00 in   Overcast
8:08 PM 23.0 °F 9.2 °F 21.2 °F 93% 29.75 in 3.0 mi NE 17.3 mph - N/A   Overcast
8:23 PM 23.0 °F 8.3 °F 21.2 °F 93% 29.75 in 4.0 mi NE 19.6 mph - N/A   Overcast
8:33 PM 23.0 °F 8.0 °F 21.2 °F 93% 29.75 in 4.0 mi NE 20.7 mph 25.3 mph N/A   Overcast
8:53 PM 23.0 °F 9.2 °F 21.2 °F 93% 29.76 in 4.0 mi NE 17.3 mph 24.2 mph N/A   Overcast
8:58 PM 23.4 °F 9.2 °F 21.2 °F 91% 29.82 in 4.0 mi NE 18.4 mph - 0.00 in   Overcast
9:08 PM 23.0 °F 9.2 °F 21.2 °F 93% 29.76 in 4.0 mi NE 17.3 mph - N/A   Overcast
9:58 PM 22.8 °F 9.9 °F 20.3 °F 90% 29.84 in 4.0 mi NE 15.0 mph - 0.00 in   Overcast
10:23 PM 23.0 °F 8.7 °F 19.4 °F 86% 29.77 in 4.0 mi NE 18.4 mph - N/A   Overcast
10:28 PM 23.0 °F 7.6 °F 19.4 °F 86% 29.77 in 4.0 mi NE 21.9 mph - N/A   Overcast
10:33 PM 23.0 °F 7.6 °F 19.4 °F 86% 29.77 in 4.0 mi NE 21.9 mph - N/A   Overcast
10:34 PM 23.0 °F 8.3 °F 19.4 °F 86% 29.77 in 4.0 mi NE 19.6 mph - N/A   Overcast
10:58 PM 22.8 °F 8.5 °F 19.8 °F 88% 29.83 in 5.0 mi NE 18.4 mph 24.2 mph 0.00 in   Light Freezing Rain
11:08 PM 23.0 °F 8.3 °F 19.4 °F 86% 29.78 in 5.0 mi NE 19.6 mph 24.2 mph N/A   Light Freezing Rain
11:13 PM 23.0 °F 8.3 °F 19.4 °F 86% 29.79 in 5.0 mi NE 19.6 mph - N/A   Light Freezing Rain
11:14 PM 23.0 °F 8.3 °F 19.4 °F 86% 29.79 in 5.0 mi NE 19.6 mph - N/A   Overcast
11:19 PM 23.0 °F 9.2 °F 19.4 °F 86% 29.79 in 5.0 mi NNE 17.3 mph - N/A   Overcast
11:49 PM 23.0 °F 8.7 °F 19.4 °F 86% 29.80 in 6.0 mi NNE 18.4 mph - N/A   Overcast
11:58 PM 23.0 °F 9.2 °F 19.4 °F 86% 29.87 in 6.0 mi NNE 17.3 mph - 0.00 in   Overcast